Miscellaneous Local Product
Issued by NWS Hastings, NE

Home | Current Version | Previous Version | Text Only | Print | Product List | Glossary Off
Versions: 1 2 3 4 5 6 7 8 9 10 11 12 13 14 15 16 17 18 19 20 21 22 23 24 25 26 27 28 29 30 31 32 33 34 35 36 37 38 39 40 41 42 43 44 45 46 47 48 49 50

000
AXUS43 KGID 180702
MISGRI

GID CWA HOURLY WEATHER ROUNDUP
NATIONAL WEATHER SERVICE HASTINGS NE
100 AM CST SAT FEB 18 2017

NOTE: "FAIR" INDICATES FEW OR NO CLOUDS BELOW 12,000 FEET WITH NO
SIGNIFICANT WEATHER AND/OR OBSTRUCTIONS TO VISIBILITY.

...SOUTH CENTRAL NEBRASKA...

CITY           SKY/WX    TMP DP  RH WIND       PRES   REMARKS
GRAND ISLAND   CLOUDY    38  29  70 N7        29.77R WCI  33
HASTINGS       CLEAR     36  27  69 N5        29.76S WCI  32
KEARNEY        CLOUDY    39  27  60 N3        29.77S
ORD            CLOUDY    28  22  78 CALM      29.77R
YORK           CLOUDY    37  32  81 N3        29.76R
AURORA         CLOUDY    33  27  79 N8        29.76S WCI  26
LEXINGTON      CLOUDY    30  24  79 W5        29.77S WCI  25
HOLDREGE       CLOUDY    33  25  70 NE7       29.76S WCI  27
HEBRON         CLOUDY    34  30  85 CALM      29.76S

...NEBRASKA PANHANDLE...

CITY           SKY/WX    TMP DP  RH WIND       PRES   REMARKS
CHADRON        PTCLDY    32  26  78 CALM      29.75S
ALLIANCE       CLOUDY    30  24  78 CALM      29.75S
SCOTTSBLUFF    PTCLDY    34  22  61 E6        29.76R WCI  29
SIDNEY         CLEAR     38  23  55 S12       29.77S WCI  30

...WESTERN AND NORTH CENTRAL NEBRASKA...

CITY           SKY/WX    TMP DP  RH WIND       PRES   REMARKS
VALENTINE        N/A     27  22  81 SW7       29.77S WCI  19
AINSWORTH      CLOUDY    30  27  86 SW6       29.76F WCI  24
ONEILL         CLOUDY    39  29  67 W6        29.77R WCI  35
BROKEN BOW     CLEAR     29  25  85 NW5       29.77S WCI  24
IMPERIAL       PTCLDY    36  24  62 SE6       29.77R WCI  31
NORTH PLATTE   CLOUDY    32  23  69 CALM      29.77S
MCCOOK         CLOUDY    37  25  61 NE3       29.76R

...EASTERN NEBRASKA...

CITY           SKY/WX    TMP DP  RH WIND       PRES   REMARKS
NORFOLK        CLOUDY    36  28  73 W5        29.75S WCI  32
SO SIOUX CITY  PTCLDY    36  32  85 SW3       29.75R
TEKAMAH        CLEAR     37  32  82 NW6       29.75R WCI  32
COLUMBUS       CLOUDY    32  27  80 CALM      29.76S
ALBION         CLOUDY    30  26  84 NW6       29.77S WCI  24
OMAHA EPPLEY   PTCLDY    42  35  76 N10       29.73R
OFFUTT AFB     CLEAR     36  35  99 N5        29.73R WCI  32
MILLARD        PTCLDY    47  37  67 NW7       29.75R
LINCOLN        CLEAR     37  32  82 CALM      29.76R
NEBRASKA CITY  CLEAR     43  31  63 W9        29.74S
BEATRICE       CLOUDY    34  30  85 CALM      29.75S
FALLS CITY     CLEAR     48  34  58 SW6       29.73R

...NORTHERN KANSAS...

CITY           SKY/WX    TMP DP  RH WIND       PRES   REMARKS
GOODLAND       CLOUDY    33  25  72 E7        29.75S WCI  27
HILL CITY      CLEAR     44  30  57 NE10      29.74S
NORTON         SUNNY     37  25  60 NE8       29.74S WCI  31
PHILLIPSBURG   CLEAR     45  28  53 N5        29.76S
SMITH CENTER   CLEAR     39  30  70 NE10      29.75S WCI  32
HAYS           CLEAR     39  30  70 SE6       29.71R WCI  35
RUSSELL        FLURRIES  40  35  83 NW3       29.71R
CONCORDIA      PTCLDY    42  37  82 CALM      29.73S
SALINA         CLEAR     48  39  71 S7        29.72R
TOPEKA         CLEAR     44  34  67 SE5       29.75R



USA.gov is the U.S. government's official web portal to all federal, state and local government web resources and services.